WBANNO,USDM_WEEK,LONGITUDE,LATITUDE,SMVWC_5_CM_MEAN,SMANOM_5_CM_MEAN,SMPERC_5_CM_30COUNTS,SMPERC_5_CM_70COUNTS,SMVWC_10_CM_MEAN,SMANOM_10_CM_MEAN,SMPERC_10_CM_30COUNTS,SMPERC_10_CM_70COUNTS,SMVWC_20_CM_MEAN,SMANOM_20_CM_MEAN,SMPERC_20_CM_30COUNTS,SMPERC_20_CM_70COUNTS,SMVWC_50_CM_MEAN,SMANOM_50_CM_MEAN,SMPERC_50_CM_30COUNTS,SMPERC_50_CM_70COUNTS,SMVWC_100_CM_MEAN,SMANOM_100_CM_MEAN,SMPERC_100_CM_30COUNTS,SMPERC_100_CM_70COUNTS,SMVWC_TOP_CM_MEAN,SMANOM_TOP_CM_MEAN,SMPERC_TOP_CM_30COUNTS,SMPERC_TOP_CM_70COUNTS,SMVWC_COLUMN_CM_MEAN,SMANOM_COLUMN_CM_MEAN,SMPERC_COLUMN_CM_30COUNTS,SMPERC_COLUMN_CM_70COUNTS
23909,20090628,-91.72,37.63,,,,,,,,,,,,,,,,,,,,,,,,,,,,
23909,20090629,-91.72,37.63,,,,,,,,,,,,,,,,,,,,,,,,,,,,
23909,20090630,-91.72,37.63,,,,,,,,,,,,,,,,,,,,,,,,,,,,
23909,20090701,-91.72,37.63,,,,,,,,,,,,,,,,,,,,,,,,,,,,
23909,20090702,-91.72,37.63,,,,,,,,,,,,,,,,,,,,,,,,,,,,
23909,20090703,-91.72,37.63,0.088,-0.8,1,0,0.135,-0.52,1,0,0.234,0.03,0,0,0.223,-0.44,0.674,0,0.178,-0.67,1,0,0.111,-0.68,1,0,0.172,-0.54,1,0
23909,20090704,-91.72,37.63,0.087,-0.79,1,0,0.134,-0.51,1,0,0.234,0.04,0,0,0.223,-0.42,0.572,0,0.178,-0.65,1,0,0.111,-0.66,1,0,0.171,-0.52,1,0
23909,20090705,-91.72,37.63,0.087,-0.77,1,0,0.133,-0.48,1,0,0.233,0.04,0,0,0.223,-0.38,0.452,0,0.179,-0.62,1,0,0.11,-0.64,1,0,0.171,-0.49,0.893,0
23909,20090706,-91.72,37.63,0.086,-0.74,1,0,0.132,-0.45,0.964,0,0.232,0.06,0,0,0.222,-0.34,0.31,0,0.179,-0.58,1,0,0.109,-0.6,1,0,0.17,-0.45,0.75,0
23909,20090707,-91.72,37.63,0.085,-0.72,1,0,0.132,-0.41,0.827,0,0.231,0.07,0,0,0.222,-0.31,0.167,0,0.179,-0.55,1,0,0.108,-0.57,1,0,0.17,-0.41,0.613,0
23909,20090708,-91.72,37.63,0.084,-0.7,1,0,0.131,-0.38,0.685,0,0.23,0.09,0,0,0.221,-0.27,0.024,0,0.178,-0.52,1,0,0.108,-0.54,1,0,0.169,-0.37,0.47,0
23909,20090709,-91.72,37.63,0.083,-0.68,1,0,0.13,-0.35,0.542,0,0.229,0.11,0,0,0.221,-0.24,0,0,0.178,-0.49,0.964,0,0.107,-0.52,1,0,0.168,-0.33,0.327,0
23909,20090710,-91.72,37.63,0.082,-0.67,1,0,0.129,-0.32,0.399,0,0.229,0.13,0,0,0.22,-0.21,0,0,0.178,-0.46,0.839,0,0.106,-0.5,1,0,0.168,-0.3,0.185,0
23909,20090711,-91.72,37.63,0.081,-0.66,1,0,0.129,-0.31,0.256,0,0.228,0.15,0,0,0.22,-0.17,0,0,0.177,-0.43,0.696,0,0.105,-0.49,1,0,0.167,-0.27,0.042,0
23909,20090712,-91.72,37.63,0.084,-0.62,0.94,0,0.128,-0.29,0.113,0,0.227,0.17,0,0,0.219,-0.14,0,0,0.177,-0.4,0.554,0,0.106,-0.46,0.94,0,0.167,-0.24,0.006,0
23909,20090713,-91.72,37.63,0.092,-0.53,0.798,0,0.129,-0.27,0.006,0,0.226,0.2,0,0,0.219,-0.12,0,0,0.176,-0.37,0.411,0,0.11,-0.4,0.798,0,0.168,-0.2,0.006,0
23909,20090714,-91.72,37.63,0.099,-0.45,0.655,0,0.131,-0.24,0,0,0.226,0.22,0,0.095,0.218,-0.1,0,0,0.176,-0.35,0.268,0,0.115,-0.35,0.655,0,0.17,-0.17,0,0
23909,20090715,-91.72,37.63,0.107,-0.37,0.512,0,0.133,-0.21,0,0,0.225,0.25,0,0.232,0.218,-0.08,0,0,0.175,-0.32,0.125,0,0.12,-0.3,0.512,0,0.172,-0.14,0,0
23909,20090716,-91.72,37.63,0.117,-0.27,0.369,0,0.137,-0.16,0,0,0.225,0.27,0,0.375,0.217,-0.07,0,0,0.174,-0.3,0.018,0,0.127,-0.22,0.369,0,0.174,-0.09,0,0
23909,20090717,-91.72,37.63,0.127,-0.18,0.226,0,0.142,-0.1,0,0,0.225,0.29,0,0.518,0.217,-0.06,0,0,0.173,-0.28,0,0,0.134,-0.15,0.226,0,0.177,-0.05,0,0
23909,20090718,-91.72,37.63,0.135,-0.1,0.083,0,0.147,-0.04,0,0,0.225,0.32,0,0.661,0.216,-0.05,0,0,0.172,-0.27,0,0,0.141,-0.08,0.083,0,0.179,-0.01,0,0
23909,20090719,-91.72,37.63,0.138,-0.07,0,0,0.151,0,0,0,0.225,0.34,0,0.804,0.216,-0.04,0,0,0.172,-0.25,0,0,0.144,-0.04,0,0,0.18,0.01,0,0
23909,20090720,-91.72,37.63,0.134,-0.09,0,0,0.153,0.03,0,0,0.225,0.36,0,0.946,0.216,-0.03,0,0,0.171,-0.24,0,0,0.144,-0.04,0,0,0.18,0.01,0,0
23909,20090721,-91.72,37.63,0.132,-0.11,0,0,0.154,0.05,0,0,0.226,0.38,0,0.994,0.215,-0.02,0,0,0.17,-0.22,0,0,0.143,-0.04,0,0,0.179,0.01,0,0
23909,20090722,-91.72,37.63,0.141,-0.01,0,0.113,0.163,0.16,0,0.113,0.228,0.42,0,1,0.217,0,0,0,0.172,-0.19,0,0,0.152,0.07,0,0.113,0.184,0.08,0,0.107
23909,20090723,-91.72,37.63,0.147,0.06,0,0.256,0.173,0.27,0,0.256,0.232,0.46,0,1,0.219,0.04,0,0,0.173,-0.15,0,0,0.16,0.15,0,0.256,0.189,0.14,0,0.25
23909,20090724,-91.72,37.63,0.152,0.11,0,0.298,0.179,0.34,0,0.399,0.237,0.51,0,1,0.22,0.07,0,0,0.175,-0.11,0,0,0.166,0.22,0,0.399,0.193,0.2,0,0.393
23909,20090725,-91.72,37.63,0.157,0.15,0,0.298,0.185,0.4,0,0.542,0.241,0.55,0,1,0.222,0.1,0,0,0.177,-0.07,0,0,0.171,0.27,0,0.423,0.196,0.24,0,0.494
23909,20090726,-91.72,37.63,0.161,0.2,0,0.298,0.189,0.44,0,0.631,0.245,0.59,0,1,0.223,0.13,0,0,0.178,-0.04,0,0,0.175,0.31,0,0.423,0.199,0.28,0,0.494
23909,20090727,-91.72,37.63,0.165,0.24,0,0.298,0.194,0.48,0,0.631,0.248,0.62,0,1,0.224,0.16,0,0,0.179,-0.01,0,0,0.179,0.35,0,0.423,0.202,0.32,0,0.494
23909,20090728,-91.72,37.63,0.169,0.27,0,0.298,0.197,0.51,0,0.631,0.251,0.64,0,1,0.225,0.19,0,0,0.18,0.02,0,0,0.183,0.39,0,0.423,0.205,0.35,0,0.494
23909,20090729,-91.72,37.63,0.165,0.22,0,0.256,0.196,0.48,0,0.595,0.253,0.65,0,1,0.226,0.21,0,0.065,0.181,0.05,0,0.065,0.181,0.35,0,0.381,0.204,0.34,0,0.458
23909,20090730,-91.72,37.63,0.165,0.2,0,0.155,0.197,0.46,0,0.595,0.256,0.67,0,1,0.226,0.23,0,0.196,0.185,0.1,0,0.202,0.181,0.33,0,0.381,0.206,0.35,0,0.458
23909,20090731,-91.72,37.63,0.166,0.2,0,0.113,0.199,0.46,0,0.595,0.259,0.69,0,1,0.227,0.25,0,0.321,0.186,0.14,0,0.202,0.183,0.33,0,0.369,0.208,0.36,0,0.458
23909,20090801,-91.72,37.63,0.168,0.2,0,0.113,0.202,0.47,0,0.595,0.261,0.7,0,1,0.228,0.27,0,0.387,0.187,0.16,0,0.202,0.185,0.33,0,0.363,0.209,0.37,0,0.458
23909,20090802,-91.72,37.63,0.169,0.2,0,0.113,0.204,0.47,0,0.524,0.264,0.7,0,1,0.228,0.28,0,0.399,0.188,0.17,0,0.202,0.187,0.34,0,0.363,0.211,0.38,0,0.458
23909,20090803,-91.72,37.63,0.17,0.2,0,0.113,0.207,0.48,0,0.524,0.265,0.7,0,1,0.229,0.29,0,0.399,0.189,0.18,0,0.202,0.188,0.34,0,0.363,0.212,0.38,0,0.458
23909,20090804,-91.72,37.63,0.172,0.2,0,0.113,0.208,0.48,0,0.524,0.267,0.69,0,1,0.23,0.29,0,0.399,0.19,0.19,0,0.202,0.19,0.34,0,0.363,0.213,0.39,0,0.458
23909,20090805,-91.72,37.63,0.167,0.15,0,0.042,0.205,0.42,0,0.446,0.266,0.66,0,0.982,0.229,0.29,0,0.333,0.189,0.17,0,0.137,0.186,0.29,0,0.292,0.211,0.35,0,0.387
23909,20090806,-91.72,37.63,0.157,0.07,0,0,0.197,0.33,0,0.304,0.262,0.59,0,0.839,0.228,0.26,0,0.202,0.185,0.12,0,0,0.177,0.19,0,0.149,0.206,0.28,0,0.244
23909,20090807,-91.72,37.63,0.148,-0.02,0,0,0.188,0.22,0,0.161,0.258,0.52,0,0.696,0.226,0.23,0,0.077,0.183,0.09,0,0,0.168,0.1,0,0.018,0.201,0.21,0,0.101
23909,20090808,-91.72,37.63,0.139,-0.11,0.107,0,0.181,0.12,0,0.018,0.253,0.45,0,0.554,0.224,0.2,0,0.012,0.181,0.06,0,0,0.16,0,0,0,0.196,0.14,0,0
23909,20090809,-91.72,37.63,0.13,-0.2,0.25,0,0.174,0.03,0,0,0.249,0.39,0,0.411,0.223,0.17,0,0,0.18,0.04,0,0,0.152,-0.09,0.083,0,0.191,0.07,0,0
23909,20090810,-91.72,37.63,0.121,-0.29,0.393,0,0.166,-0.06,0,0,0.244,0.32,0,0.268,0.221,0.15,0,0,0.178,0.02,0,0,0.144,-0.18,0.226,0,0.186,0.01,0,0
23909,20090811,-91.72,37.63,0.112,-0.38,0.536,0,0.16,-0.14,0,0,0.24,0.27,0,0.125,0.22,0.12,0,0,0.177,0.01,0,0,0.136,-0.27,0.369,0,0.182,-0.05,0,0
23909,20090812,-91.72,37.63,0.104,-0.46,0.679,0,0.153,-0.22,0.131,0,0.236,0.21,0,0,0.218,0.09,0,0,0.175,0,0,0,0.129,-0.35,0.512,0,0.177,-0.1,0,0
23909,20090813,-91.72,37.63,0.097,-0.54,0.821,0,0.147,-0.29,0.274,0,0.232,0.17,0,0,0.217,0.06,0,0,0.174,-0.02,0,0,0.122,-0.43,0.655,0,0.173,-0.15,0,0
23909,20090814,-91.72,37.63,0.09,-0.61,0.964,0,0.141,-0.36,0.417,0,0.228,0.12,0,0,0.216,0.04,0,0,0.172,-0.03,0,0,0.115,-0.49,0.798,0,0.169,-0.2,0,0
23909,20090815,-91.72,37.63,0.084,-0.67,1,0,0.135,-0.42,0.56,0,0.224,0.08,0,0,0.214,0.01,0,0,0.171,-0.04,0,0,0.109,-0.56,0.94,0,0.166,-0.25,0.101,0
23909,20090816,-91.72,37.63,0.079,-0.73,1,0,0.129,-0.48,0.702,0,0.221,0.03,0,0,0.213,-0.01,0,0,0.169,-0.06,0,0,0.104,-0.61,1,0,0.162,-0.29,0.244,0
23909,20090817,-91.72,37.63,0.078,-0.74,1,0,0.127,-0.51,0.798,0,0.218,0,0,0,0.212,-0.04,0,0,0.168,-0.08,0,0,0.103,-0.64,1,0,0.161,-0.32,0.304,0
23909,20090818,-91.72,37.63,0.082,-0.73,1,0,0.128,-0.52,0.935,0,0.216,-0.02,0,0,0.21,-0.06,0,0,0.166,-0.1,0,0,0.105,-0.63,1,0,0.16,-0.33,0.304,0
23909,20090819,-91.72,37.63,0.087,-0.71,1,0,0.128,-0.53,0.946,0,0.214,-0.05,0,0,0.209,-0.08,0,0,0.165,-0.12,0,0,0.108,-0.63,1,0,0.161,-0.35,0.304,0
23909,20090820,-91.72,37.63,0.093,-0.69,0.982,0,0.132,-0.51,0.905,0,0.213,-0.06,0,0,0.208,-0.1,0,0,0.164,-0.14,0,0,0.112,-0.61,0.964,0,0.162,-0.35,0.357,0
23909,20090821,-91.72,37.63,0.107,-0.6,0.839,0,0.14,-0.45,0.762,0,0.214,-0.05,0,0,0.209,-0.09,0,0,0.165,-0.16,0,0,0.123,-0.53,0.821,0,0.167,-0.31,0.357,0
23909,20090822,-91.72,37.63,0.119,-0.53,0.696,0,0.149,-0.38,0.619,0,0.215,-0.05,0,0,0.21,-0.09,0,0,0.165,-0.18,0,0,0.134,-0.46,0.679,0,0.172,-0.28,0.256,0
23909,20090823,-91.72,37.63,0.13,-0.46,0.649,0,0.157,-0.32,0.476,0,0.217,-0.04,0,0,0.211,-0.08,0,0,0.165,-0.2,0,0,0.144,-0.4,0.536,0,0.176,-0.25,0.113,0
23909,20090824,-91.72,37.63,0.136,-0.43,0.649,0,0.162,-0.29,0.381,0,0.218,-0.03,0,0,0.211,-0.09,0,0,0.166,-0.22,0,0,0.149,-0.37,0.446,0,0.179,-0.24,0.054,0
23909,20090825,-91.72,37.63,0.137,-0.44,0.649,0,0.165,-0.27,0.244,0,0.219,-0.02,0,0,0.211,-0.09,0,0,0.166,-0.24,0,0,0.151,-0.37,0.44,0,0.18,-0.24,0.054,0
23909,20090826,-91.72,37.63,0.136,-0.45,0.649,0,0.167,-0.27,0.101,0,0.221,-0.01,0,0,0.212,-0.09,0,0,0.166,-0.28,0.018,0,0.151,-0.37,0.44,0,0.18,-0.24,0.149,0
23909,20090827,-91.72,37.63,0.134,-0.47,0.667,0,0.166,-0.28,0.101,0,0.221,-0.01,0,0,0.212,-0.1,0,0,0.166,-0.31,0.137,0,0.15,-0.39,0.476,0,0.18,-0.26,0.238,0
23909,20090828,-91.72,37.63,0.123,-0.56,0.81,0,0.16,-0.34,0.244,0,0.22,-0.02,0,0,0.21,-0.13,0,0,0.165,-0.35,0.28,0,0.142,-0.46,0.619,0,0.176,-0.32,0.381,0
23909,20090829,-91.72,37.63,0.116,-0.62,0.952,0,0.155,-0.39,0.387,0,0.219,-0.04,0,0,0.209,-0.16,0,0,0.164,-0.39,0.423,0,0.135,-0.52,0.762,0,0.172,-0.37,0.524,0
23909,20090830,-91.72,37.63,0.11,-0.66,1,0,0.151,-0.44,0.53,0,0.218,-0.05,0,0,0.208,-0.18,0,0,0.163,-0.43,0.565,0,0.13,-0.56,0.905,0,0.17,-0.41,0.667,0
23909,20090831,-91.72,37.63,0.105,-0.71,1,0,0.146,-0.48,0.673,0,0.216,-0.06,0,0,0.207,-0.21,0,0,0.162,-0.46,0.708,0,0.126,-0.6,0.994,0,0.167,-0.45,0.81,0
23909,20090901,-91.72,37.63,0.101,-0.74,1,0,0.143,-0.52,0.815,0,0.215,-0.08,0,0,0.206,-0.23,0,0,0.161,-0.5,0.851,0,0.122,-0.64,1,0,0.165,-0.5,0.952,0
23909,20090902,-91.72,37.63,0.097,-0.77,1,0,0.139,-0.56,0.958,0,0.213,-0.1,0,0,0.205,-0.26,0,0,0.16,-0.53,0.976,0,0.118,-0.67,1,0,0.163,-0.53,1,0
23909,20090903,-91.72,37.63,0.094,-0.8,1,0,0.136,-0.59,1,0,0.212,-0.12,0,0,0.204,-0.29,0,0,0.159,-0.56,1,0,0.115,-0.7,1,0,0.161,-0.57,1,0
23909,20090904,-91.72,37.63,0.092,-0.82,1,0,0.133,-0.62,1,0,0.21,-0.14,0,0,0.204,-0.31,0,0,0.158,-0.59,1,0,0.113,-0.72,1,0,0.159,-0.6,1,0
23909,20090905,-91.72,37.63,0.092,-0.81,0.958,0,0.134,-0.6,0.935,0,0.21,-0.14,0,0,0.204,-0.33,0,0,0.158,-0.6,0.958,0,0.113,-0.71,0.94,0,0.16,-0.6,0.958,0
23909,20090906,-91.72,37.63,0.1,-0.73,0.815,0,0.139,-0.53,0.792,0,0.212,-0.1,0,0,0.206,-0.3,0,0,0.162,-0.55,0.815,0,0.12,-0.63,0.798,0,0.164,-0.54,0.815,0
23909,20090907,-91.72,37.63,0.109,-0.64,0.673,0,0.145,-0.44,0.649,0,0.215,-0.06,0,0,0.208,-0.28,0,0,0.164,-0.53,0.673,0,0.127,-0.54,0.655,0,0.168,-0.47,0.673,0
23909,20090908,-91.72,37.63,0.117,-0.55,0.53,0,0.151,-0.36,0.506,0,0.219,0,0,0,0.211,-0.25,0,0,0.166,-0.51,0.571,0,0.134,-0.46,0.512,0,0.173,-0.4,0.53,0
23909,20090909,-91.72,37.63,0.125,-0.46,0.387,0,0.157,-0.28,0.363,0,0.222,0.05,0,0,0.212,-0.23,0,0,0.168,-0.49,0.565,0,0.141,-0.37,0.369,0,0.177,-0.33,0.387,0
23909,20090910,-91.72,37.63,0.144,-0.28,0.244,0.042,0.174,-0.08,0.22,0.137,0.233,0.21,0,0.143,0.222,-0.08,0,0.137,0.176,-0.37,0.423,0.054,0.159,-0.19,0.226,0.137,0.19,-0.14,0.244,0.137
23909,20090911,-91.72,37.63,0.16,-0.12,0.101,0.042,0.189,0.1,0.077,0.28,0.246,0.38,0,0.286,0.231,0.07,0,0.28,0.187,-0.19,0.28,0.196,0.175,-0.02,0.083,0.19,0.203,0.06,0.101,0.28
23909,20090912,-91.72,37.63,0.172,-0.01,0,0.042,0.199,0.22,0,0.381,0.256,0.52,0,0.429,0.237,0.16,0,0.333,0.197,-0.02,0.179,0.339,0.185,0.09,0,0.19,0.212,0.21,0,0.423
23909,20090913,-91.72,37.63,0.174,0.01,0,0.042,0.204,0.27,0,0.381,0.262,0.6,0,0.571,0.241,0.22,0,0.333,0.203,0.08,0.179,0.482,0.189,0.13,0,0.19,0.217,0.27,0,0.5
23909,20090914,-91.72,37.63,0.174,0.02,0,0.042,0.207,0.3,0,0.381,0.266,0.66,0,0.714,0.244,0.26,0,0.333,0.209,0.2,0.179,0.625,0.191,0.15,0,0.19,0.22,0.32,0,0.5
23909,20090915,-91.72,37.63,0.175,0.03,0,0.042,0.209,0.33,0,0.381,0.27,0.71,0,0.857,0.246,0.31,0,0.333,0.215,0.3,0.137,0.685,0.192,0.17,0,0.19,0.223,0.37,0,0.5
23909,20090916,-91.72,37.63,0.177,0.05,0,0.042,0.212,0.36,0,0.381,0.274,0.75,0,1,0.249,0.36,0,0.333,0.22,0.39,0,0.685,0.194,0.19,0,0.19,0.226,0.41,0,0.5
23909,20090917,-91.72,37.63,0.167,-0.04,0,0,0.204,0.27,0,0.244,0.269,0.69,0,1,0.244,0.28,0,0.196,0.219,0.39,0,0.631,0.185,0.1,0,0.054,0.221,0.32,0,0.363
23909,20090918,-91.72,37.63,0.159,-0.12,0,0,0.196,0.18,0,0.101,0.263,0.61,0,1,0.24,0.2,0,0.054,0.213,0.3,0,0.488,0.178,0.02,0,0,0.214,0.23,0,0.22
23909,20090919,-91.72,37.63,0.152,-0.18,0,0,0.19,0.11,0,0,0.257,0.53,0,1,0.237,0.15,0,0,0.208,0.22,0,0.345,0.171,-0.05,0,0,0.209,0.15,0,0.077
23909,20090920,-91.72,37.63,0.15,-0.21,0.042,0.03,0.188,0.09,0,0.03,0.255,0.5,0,0.988,0.235,0.14,0,0.03,0.204,0.16,0,0.22,0.169,-0.08,0,0.03,0.206,0.11,0,0.03
23909,20090921,-91.72,37.63,0.162,-0.12,0.042,0.173,0.201,0.21,0,0.173,0.263,0.59,0,0.988,0.239,0.21,0,0.173,0.211,0.28,0,0.22,0.181,0.03,0,0.173,0.215,0.23,0,0.173
23909,20090922,-91.72,37.63,0.182,0.03,0.042,0.286,0.217,0.37,0,0.315,0.275,0.71,0,0.988,0.244,0.29,0,0.315,0.221,0.43,0,0.304,0.2,0.18,0,0.315,0.228,0.38,0,0.315
23909,20090923,-91.72,37.63,0.204,0.19,0.042,0.429,0.235,0.54,0,0.458,0.29,0.86,0,0.988,0.249,0.38,0,0.458,0.233,0.6,0,0.446,0.219,0.34,0,0.458,0.242,0.55,0,0.458
23909,20090924,-91.72,37.63,0.221,0.32,0.042,0.571,0.251,0.68,0,0.601,0.304,1,0,0.988,0.255,0.47,0,0.601,0.245,0.75,0,0.589,0.236,0.48,0,0.601,0.255,0.71,0,0.601
23909,20090925,-91.72,37.63,0.25,0.53,0.042,0.714,0.275,0.9,0,0.744,0.323,1.18,0,0.988,0.261,0.57,0,0.744,0.259,0.9,0,0.732,0.263,0.69,0,0.744,0.274,0.92,0,0.744
23909,20090926,-91.72,37.63,0.274,0.7,0.042,0.857,0.296,1.08,0,0.887,0.34,1.35,0,0.988,0.268,0.67,0,0.887,0.273,1.05,0,0.875,0.285,0.87,0,0.887,0.29,1.1,0,0.887
23909,20090927,-91.72,37.63,0.291,0.82,0,0.97,0.311,1.21,0,1,0.354,1.49,0,1,0.273,0.76,0,1,0.286,1.19,0,1,0.301,0.99,0,1,0.303,1.25,0,1
23909,20090928,-91.72,37.63,0.292,0.81,0,0.97,0.311,1.2,0,1,0.355,1.49,0,1,0.274,0.77,0,1,0.288,1.15,0,1,0.302,0.98,0,1,0.304,1.25,0,1
23909,20090929,-91.72,37.63,0.284,0.72,0,0.893,0.306,1.13,0,1,0.352,1.46,0,1,0.274,0.77,0,1,0.289,1.11,0,1,0.295,0.9,0,1,0.301,1.2,0,1
23909,20090930,-91.72,37.63,0.273,0.61,0,0.75,0.299,1.06,0,1,0.345,1.38,0,1,0.273,0.75,0,1,0.289,1.06,0,1,0.286,0.81,0,1,0.296,1.13,0,1
23909,20091001,-91.72,37.63,0.265,0.53,0,0.607,0.293,1,0,1,0.338,1.3,0,1,0.27,0.72,0,1,0.289,1.03,0,1,0.279,0.74,0,0.917,0.291,1.06,0,1
23909,20091002,-91.72,37.63,0.245,0.36,0,0.464,0.279,0.85,0,1,0.326,1.18,0,1,0.268,0.68,0,1,0.287,1,0,1,0.262,0.58,0,0.774,0.281,0.93,0,1
23909,20091003,-91.72,37.63,0.23,0.22,0,0.321,0.267,0.74,0,0.994,0.315,1.06,0,1,0.264,0.64,0,1,0.284,0.97,0,1,0.249,0.46,0,0.631,0.272,0.82,0,1
23909,20091004,-91.72,37.63,0.218,0.1,0,0.179,0.257,0.63,0,0.875,0.305,0.94,0,1,0.261,0.6,0,1,0.282,0.94,0,1,0.237,0.35,0,0.488,0.265,0.72,0,0.982
23909,20091005,-91.72,37.63,0.208,0,0,0.036,0.247,0.52,0,0.732,0.297,0.84,0,1,0.257,0.55,0,1,0.28,0.9,0,1,0.228,0.24,0,0.345,0.258,0.63,0,0.839
23909,20091006,-91.72,37.63,0.201,-0.08,0,0,0.24,0.44,0,0.613,0.29,0.76,0,1,0.254,0.5,0,0.976,0.277,0.86,0,1,0.221,0.16,0,0.208,0.252,0.55,0,0.72
23909,20091007,-91.72,37.63,0.205,-0.06,0,0.101,0.24,0.42,0,0.613,0.289,0.73,0,1,0.254,0.51,0,0.976,0.276,0.84,0,1,0.222,0.17,0,0.208,0.253,0.54,0,0.72
23909,20091008,-91.72,37.63,0.208,-0.04,0,0.143,0.241,0.42,0,0.613,0.289,0.73,0,1,0.255,0.52,0,0.976,0.275,0.83,0,1,0.225,0.18,0,0.286,0.254,0.53,0,0.72
23909,20091009,-91.72,37.63,0.235,0.23,0,0.286,0.257,0.59,0,0.613,0.297,0.79,0,1,0.257,0.56,0,0.976,0.276,0.83,0,1,0.246,0.4,0,0.429,0.264,0.64,0,0.72
23909,20091010,-91.72,37.63,0.257,0.43,0,0.429,0.273,0.76,0,0.619,0.305,0.88,0,1,0.26,0.6,0,0.976,0.278,0.85,0,1,0.265,0.6,0,0.571,0.275,0.74,0,0.72
23909,20091011,-91.72,37.63,0.271,0.56,0,0.571,0.284,0.88,0,0.738,0.312,0.95,0,1,0.264,0.65,0,0.976,0.28,0.87,0,1,0.277,0.72,0,0.714,0.282,0.82,0,0.738
23909,20091012,-91.72,37.63,0.282,0.66,0,0.714,0.293,0.97,0,0.881,0.319,1.02,0,1,0.268,0.7,0,0.976,0.283,0.88,0,1,0.288,0.82,0,0.857,0.289,0.89,0,0.881
23909,20091013,-91.72,37.63,0.291,0.73,0,0.744,0.301,1.05,0,1,0.325,1.08,0,1,0.272,0.75,0,1,0.286,0.91,0,1,0.296,0.9,0,0.994,0.295,0.95,0,1
23909,20091014,-91.72,37.63,0.293,0.73,0,0.744,0.305,1.08,0,1,0.327,1.11,0,1,0.274,0.77,0,1,0.286,0.92,0,1,0.299,0.92,0,0.994,0.297,0.97,0,1
23909,20091015,-91.72,37.63,0.297,0.78,0,0.845,0.31,1.11,0,1,0.331,1.13,0,1,0.276,0.79,0,1,0.287,0.92,0,1,0.304,0.97,0,1,0.3,1,0,1
23909,20091016,-91.72,37.63,0.283,0.62,0,0.845,0.303,1.01,0,1,0.328,1.09,0,1,0.277,0.78,0,1,0.287,0.91,0,1,0.293,0.84,0,1,0.295,0.94,0,1
23909,20091017,-91.72,37.63,0.274,0.52,0,0.845,0.296,0.9,0,1,0.325,1.04,0,1,0.277,0.77,0,1,0.286,0.9,0,1,0.285,0.74,0,1,0.292,0.89,0,1
23909,20091018,-91.72,37.63,0.271,0.47,0,0.798,0.294,0.85,0,1,0.324,1.01,0,1,0.278,0.77,0,1,0.286,0.89,0,1,0.283,0.69,0,1,0.291,0.86,0,1
23909,20091019,-91.72,37.63,0.27,0.44,0,0.655,0.294,0.81,0,1,0.323,0.98,0,1,0.278,0.76,0,1,0.285,0.87,0,1,0.282,0.65,0,1,0.29,0.83,0,1
23909,20091020,-91.72,37.63,0.268,0.4,0,0.625,0.292,0.78,0,1,0.322,0.96,0,1,0.278,0.75,0,1,0.284,0.85,0,1,0.28,0.61,0,0.893,0.289,0.79,0,1
23909,20091021,-91.72,37.63,0.264,0.32,0,0.524,0.29,0.72,0,1,0.321,0.94,0,1,0.278,0.74,0,1,0.283,0.83,0,1,0.277,0.54,0,0.75,0.287,0.75,0,1
23909,20091022,-91.72,37.63,0.257,0.21,0,0.381,0.285,0.65,0,0.923,0.318,0.9,0,1,0.277,0.71,0,1,0.282,0.79,0,1,0.271,0.44,0,0.607,0.284,0.68,0,1
23909,20091023,-91.72,37.63,0.261,0.25,0,0.357,0.288,0.67,0,0.911,0.318,0.91,0,1,0.276,0.7,0,1,0.281,0.75,0,1,0.274,0.47,0,0.583,0.285,0.67,0,1
23909,20091024,-91.72,37.63,0.264,0.28,0,0.357,0.29,0.69,0,0.911,0.321,0.94,0,1,0.276,0.68,0,1,0.28,0.7,0,1,0.277,0.49,0,0.583,0.286,0.66,0,1
23909,20091025,-91.72,37.63,0.266,0.29,0,0.351,0.291,0.69,0,0.911,0.321,0.95,0,1,0.276,0.67,0,1,0.279,0.66,0,1,0.278,0.5,0,0.583,0.287,0.65,0,1
23909,20091026,-91.72,37.63,0.27,0.34,0,0.452,0.294,0.7,0,0.911,0.323,0.96,0,1,0.276,0.66,0,1,0.279,0.62,0,1,0.282,0.53,0,0.583,0.288,0.65,0,1
23909,20091027,-91.72,37.63,0.278,0.43,0,0.595,0.299,0.74,0,0.911,0.325,0.97,0,1,0.276,0.66,0,1,0.278,0.57,0,1,0.288,0.6,0,0.69,0.291,0.66,0,1
23909,20091028,-91.72,37.63,0.294,0.66,0,0.738,0.311,0.9,0,0.911,0.331,1.03,0,1,0.277,0.66,0,1,0.279,0.52,0,0.988,0.303,0.81,0,0.833,0.298,0.73,0,1
23909,20091029,-91.72,37.63,0.305,0.82,0,0.881,0.32,1.01,0,0.988,0.338,1.11,0,1,0.278,0.66,0,1,0.279,0.48,0,0.851,0.313,0.96,0,0.976,0.304,0.78,0,1
23909,20091030,-91.72,37.63,0.317,1.03,0,0.905,0.325,1.11,0,1,0.341,1.16,0,1,0.279,0.63,0,1,0.279,0.43,0,0.708,0.321,1.11,0,1,0.308,0.83,0,1
23909,20091031,-91.72,37.63,0.323,1.14,0,0.905,0.33,1.23,0,1,0.343,1.22,0,1,0.279,0.59,0,1,0.278,0.39,0,0.565,0.326,1.22,0,1,0.311,0.85,0,1
23909,20091101,-91.72,37.63,0.325,1.18,0,0.958,0.332,1.29,0,1,0.345,1.29,0,1,0.28,0.55,0,1,0.277,0.34,0,0.423,0.329,1.27,0,1,0.312,0.86,0,1
23909,20091102,-91.72,37.63,0.324,1.14,0,0.881,0.332,1.31,0,1,0.346,1.35,0,1,0.28,0.51,0,1,0.276,0.29,0,0.28,0.328,1.26,0,1,0.312,0.85,0,1
23909,20091103,-91.72,37.63,0.319,1.03,0,0.738,0.33,1.29,0,1,0.345,1.38,0,1,0.28,0.46,0,1,0.275,0.24,0,0.137,0.324,1.19,0,0.899,0.31,0.82,0,1
23909,20091104,-91.72,37.63,0.305,0.77,0.089,0.595,0.319,1.15,0,1,0.341,1.36,0,1,0.28,0.41,0,1,0.274,0.19,0,0.006,0.312,0.98,0,0.756,0.304,0.73,0,1
23909,20091105,-91.72,37.63,0.296,0.58,0.232,0.452,0.312,1.06,0,0.935,0.336,1.32,0,1,0.28,0.36,0,0.857,0.273,0.15,0,0,0.304,0.83,0,0.613,0.299,0.65,0,0.863
23909,20091106,-91.72,37.63,0.272,0.13,0.375,0.31,0.299,0.85,0,0.792,0.329,1.25,0,1,0.279,0.32,0,0.714,0.272,0.12,0,0,0.286,0.51,0,0.47,0.29,0.52,0,0.72
23909,20091107,-91.72,37.63,0.255,-0.22,0.518,0.167,0.286,0.61,0,0.649,0.321,1.13,0,1,0.277,0.28,0,0.571,0.27,0.07,0,0,0.27,0.21,0,0.327,0.282,0.38,0,0.577
23909,20091108,-91.72,37.63,0.244,-0.47,0.661,0.024,0.278,0.46,0,0.506,0.315,1.02,0,1,0.276,0.23,0,0.429,0.269,0.03,0,0,0.261,0.02,0.107,0.185,0.276,0.27,0,0.435
23909,20091109,-91.72,37.63,0.237,-0.65,0.804,0,0.272,0.34,0,0.363,0.31,0.92,0,1,0.274,0.18,0,0.286,0.267,0,0,0,0.254,-0.14,0.25,0.042,0.272,0.18,0,0.292
23909,20091110,-91.72,37.63,0.231,-0.8,0.946,0,0.266,0.23,0,0.22,0.306,0.82,0,1,0.271,0.12,0,0.143,0.266,-0.04,0,0,0.249,-0.27,0.393,0,0.268,0.09,0,0.149
23909,20091111,-91.72,37.63,0.226,-0.93,1,0,0.262,0.13,0,0.077,0.302,0.73,0,0.982,0.269,0.07,0,0,0.264,-0.07,0,0,0.244,-0.4,0.536,0,0.265,-0.01,0,0.006
23909,20091112,-91.72,37.63,0.222,-1.06,1,0,0.258,0.03,0.006,0,0.299,0.63,0,0.839,0.267,0.01,0,0,0.263,-0.1,0,0,0.24,-0.52,0.679,0,0.262,-0.1,0.054,0
23909,20091113,-91.72,37.63,0.218,-1.18,1,0,0.254,-0.07,0.143,0,0.295,0.54,0,0.696,0.265,-0.06,0,0,0.261,-0.14,0,0,0.236,-0.64,0.821,0,0.259,-0.2,0.196,0
23909,20091114,-91.72,37.63,0.214,-1.29,1,0,0.25,-0.17,0.286,0,0.292,0.45,0,0.554,0.264,-0.13,0.03,0,0.26,-0.18,0,0,0.232,-0.75,0.964,0,0.256,-0.29,0.339,0
23909,20091115,-91.72,37.63,0.21,-1.39,1,0,0.246,-0.27,0.429,0,0.289,0.36,0,0.411,0.262,-0.21,0.167,0,0.258,-0.22,0,0,0.228,-0.86,1,0,0.253,-0.38,0.482,0
23909,20091116,-91.72,37.63,0.216,-1.27,0.946,0.042,0.247,-0.26,0.518,0.036,0.288,0.33,0,0.304,0.262,-0.25,0.256,0,0.258,-0.25,0.048,0,0.232,-0.8,0.946,0.036,0.254,-0.38,0.571,0.036
23909,20091117,-91.72,37.63,0.234,-0.87,0.804,0.185,0.261,0.02,0.518,0.179,0.295,0.41,0,0.304,0.263,-0.21,0.256,0.06,0.26,-0.26,0.048,0,0.248,-0.45,0.804,0.179,0.263,-0.21,0.571,0.179
23909,20091118,-91.72,37.63,0.255,-0.43,0.661,0.327,0.275,0.28,0.518,0.321,0.302,0.51,0,0.321,0.266,-0.16,0.256,0.173,0.262,-0.27,0.048,0,0.265,-0.08,0.661,0.321,0.272,-0.03,0.571,0.321
23909,20091119,-91.72,37.63,0.275,0.01,0.518,0.47,0.29,0.57,0.512,0.464,0.309,0.63,0,0.464,0.268,-0.11,0.256,0.25,0.264,-0.28,0.048,0,0.282,0.29,0.518,0.464,0.281,0.16,0.518,0.464
23909,20091120,-91.72,37.63,0.29,0.34,0.375,0.613,0.301,0.79,0.375,0.607,0.317,0.74,0,0.607,0.271,-0.03,0.256,0.387,0.267,-0.29,0.048,0,0.296,0.57,0.375,0.607,0.289,0.32,0.375,0.607
23909,20091121,-91.72,37.63,0.303,0.62,0.232,0.661,0.31,0.97,0.232,0.75,0.323,0.83,0,0.75,0.274,0.07,0.226,0.53,0.27,-0.3,0.089,0,0.307,0.8,0.232,0.726,0.296,0.46,0.232,0.696
23909,20091122,-91.72,37.63,0.314,0.84,0.089,0.661,0.319,1.12,0.089,0.893,0.329,0.91,0,0.893,0.277,0.17,0.089,0.673,0.272,-0.31,0.232,0,0.316,0.99,0.089,0.726,0.302,0.58,0.089,0.696
23909,20091123,-91.72,37.63,0.314,0.84,0.101,0.619,0.322,1.17,0,0.863,0.332,0.94,0,1,0.279,0.25,0,0.815,0.274,-0.32,0.327,0,0.318,1,0,0.69,0.304,0.61,0,0.661
23909,20091124,-91.72,37.63,0.301,0.54,0.244,0.476,0.311,0.94,0,0.726,0.327,0.86,0,1,0.279,0.25,0,0.899,0.274,-0.36,0.47,0,0.306,0.72,0,0.548,0.298,0.47,0,0.518
23909,20091125,-91.72,37.63,0.286,0.23,0.315,0.333,0.303,0.73,0,0.583,0.323,0.77,0,1,0.28,0.25,0,0.929,0.273,-0.4,0.613,0,0.294,0.44,0,0.405,0.293,0.33,0,0.375
23909,20091126,-91.72,37.63,0.272,-0.09,0.458,0.19,0.293,0.5,0,0.44,0.318,0.67,0,1,0.28,0.25,0,0.958,0.272,-0.43,0.756,0,0.282,0.16,0,0.262,0.287,0.18,0,0.232
23909,20091127,-91.72,37.63,0.262,-0.3,0.601,0.048,0.286,0.34,0,0.298,0.314,0.59,0,0.988,0.28,0.24,0,0.887,0.271,-0.47,0.899,0,0.274,-0.04,0.089,0.119,0.283,0.06,0,0.089
23909,20091128,-91.72,37.63,0.254,-0.48,0.744,0,0.282,0.23,0,0.155,0.311,0.52,0,0.899,0.28,0.21,0,0.744,0.271,-0.5,1,0,0.268,-0.19,0.232,0,0.279,-0.04,0,0
23909,20091129,-91.72,37.63,0.248,-0.62,0.887,0,0.278,0.13,0,0.012,0.308,0.47,0,0.756,0.279,0.16,0,0.601,0.27,-0.54,1,0,0.263,-0.3,0.375,0,0.277,-0.12,0,0
23909,20091130,-91.72,37.63,0.244,-0.72,0.929,0,0.275,0.04,0,0.006,0.306,0.41,0,0.613,0.278,0.09,0,0.458,0.269,-0.59,1,0,0.259,-0.4,0.518,0,0.274,-0.2,0.065,0
23909,20091201,-91.72,37.63,0.24,-0.82,0.929,0,0.271,-0.05,0.006,0,0.303,0.35,0,0.47,0.276,0,0.012,0.321,0.268,-0.65,1,0,0.256,-0.49,0.661,0,0.272,-0.28,0.208,0